Content
SEND FEEDBACK

Daily
Averages
Monthly
Summary
United States of America

HAZELWOOD, MISSOURI


Home > North America > United States > Missouri
Elevation: 570 feet     Latitude: 38 45N     Longitude: 090 22W

WEATHER
 
SELECT A DAY
Number of Records: 200,566;   Date Range: 1/1/95 - 11/24/14
 
SHARE

PRINT THIS DATA

[ ← Previous Day ]
WEATHER ALMANAC - JANUARY 19, 2013
[ Next Day → ]
[ °C ]   °F
Weather ElementAverageHighLow
Temperature51.3 °F64.9 °F (2:54 pm)43 °F (2:54 am)
Dewpoint29.2 °F33.1 °F (8:54 pm)25 °F (2:54 am)
Humidity43.5 %56 % (6:54 pm)29 % (2:54 pm)
Barometer30.04 in30.14 in (1:54 am)29.92 in (1:54 pm)
Wind Speed13 mph19.6 mph (2:54 pm)
Wind Gust29.9 mph (1:54 pm)
Weather ElementAverage
Visibility10 mi
Wind DirectionWSW (244.8 °)

Weather ElementTotal
Precipitation---
Heating Degree Days11.1 (Base 65)
Growing Degree Days4 (Base 50)
Averaged from 23 records on January 19, 2013
WEATHER CONDITIONS BREAKOUT
WIND DIRECTION BREAKOUT
WEATHER BY HOUR - JANUARY 19, 2013
[ °C ]   °F
Local TimeTemperatureDewpointHumidityBarometerVisibilityWind DirectionWind SpeedGust SpeedPrecipitationEventsConditions
1:54 AM44.1 °F26.1 °F49 %30.14 in10.0 miSSW (210°)10.4 mphClear
2:54 AM43.0 °F25.0 °F49 %30.13 in10.0 miSW (220°)9.2 mphClear
3:54 AM44.1 °F25.0 °F47 %30.10 in10.0 miSSW (210°)10.4 mph17.3 mphClear
4:54 AM44.1 °F25.0 °F47 %30.09 in10.0 miSW (220°)12.7 mphClear
5:54 AM45.0 °F25.0 °F46 %30.07 in10.0 miSW (220°)13.8 mph21.9 mphClear
6:54 AM46.0 °F25.0 °F44 %30.06 in10.0 miSW (220°)15.0 mph23.0 mphClear
7:54 AM46.9 °F26.1 °F44 %30.05 in10.0 miSW (230°)12.7 mph21.9 mphClear
8:54 AM48.9 °F27.0 °F43 %30.05 in10.0 miWSW (240°)13.8 mph21.9 mphClear
9:54 AM52.0 °F28.0 °F40 %30.05 in10.0 miWSW (240°)13.8 mph23.0 mphClear
10:54 AM55.9 °F30.9 °F39 %30.01 in10.0 miSW (230°)15.0 mph28.8 mphClear
11:54 AM60.1 °F30.9 °F33 %29.96 in10.0 miWSW (240°)17.3 mph26.5 mphClear
12:54 PM62.1 °F32.0 °F32 %29.93 in10.0 miWSW (240°)16.1 mph26.5 mphClear
1:54 PM64.0 °F32.0 °F30 %29.92 in10.0 miWSW (240°)16.1 mph29.9 mphScattered Clouds
2:54 PM64.9 °F32.0 °F29 %29.92 in10.0 miWSW (250°)19.6 mph24.2 mphScattered Clouds
3:54 PM63.0 °F30.9 °F30 %29.94 in10.0 miWest (260°)15.0 mph23.0 mphScattered Clouds
4:54 PM57.9 °F32.0 °F37 %29.96 in10.0 miWSW (250°)11.5 mphClear
5:54 PM48.9 °F30.9 °F50 %29.99 in10.0 miWSW (250°)8.1 mphClear
6:54 PM46.9 °F32.0 °F56 %30.02 in10.0 miWest (260°)8.1 mphClear
7:54 PM46.0 °F30.9 °F56 %30.05 in10.0 miWest (260°)9.2 mphClear
8:54 PM48.9 °F33.1 °F54 %30.07 in10.0 miWest (260°)9.2 mphClear
9:54 PM51.1 °F30.9 °F46 %30.10 in10.0 miWNW (290°)15.0 mphClear
10:54 PM48.9 °F30.0 °F48 %30.12 in10.0 miWNW (300°)12.7 mphClear
11:54 PM46.9 °F30.0 °F52 %30.14 in10.0 miWNW (290°)15.0 mph20.7 mphClear
Hourly data recorded from KSUS, located miles away from Hazelwood, Missouri







STORIES FROM OUR PARTNERS